Location: Fort Hays State University
(38.8712°N, 99.3432°W)
Time: 18:36:27
(UTC-05:00)

Cosmos 2279 Rocket - Visible Passes

Search period start: 17 September 2014 00:00
Search period end: 27 September 2014 00:00
Orbit: 966 x 979 km, 82.9° (Epoch: 15 September)

Date Brightness Start Highest point End Pass type
(mag) Time Alt. Az. Time Alt. Az. Time Alt. Az.
17 Sep 4.7 22:04:58 10° N 22:09:22 38° NE 22:09:22 38° NE visible
17 Sep 6.0 23:50:57 10° NNW 23:53:59 22° WNW 23:53:59 22° WNW visible
18 Sep 5.8 20:47:35 10° NE 20:49:09 11° ENE 20:49:13 11° ENE visible
18 Sep 4.5 22:29:10 10° N 22:33:49 52° N 22:33:49 52° N visible
19 Sep 6.5 00:17:06 10° NW 00:18:26 12° WNW 00:18:26 12° WNW visible
19 Sep 5.3 21:09:33 10° NNE 21:13:42 21° ENE 21:13:42 21° ENE visible
19 Sep 4.9 22:53:42 10° NNW 22:58:18 45° NW 22:58:18 45° NW visible
20 Sep 4.6 21:33:07 10° N 21:38:12 36° ENE 21:38:12 36° ENE visible
20 Sep 5.6 23:18:37 10° NNW 23:22:48 29° WNW 23:22:48 29° WNW visible
21 Sep 4.1 21:57:11 10° N 22:02:44 61° NE 22:02:44 61° NE visible
21 Sep 6.3 23:44:14 10° NW 23:47:21 17° WNW 23:47:21 17° WNW visible
22 Sep 5.4 20:38:04 10° NNE 20:41:55 17° ENE 20:42:42 16° ENE visible
22 Sep 4.2 22:21:36 10° NNW 22:27:19 67° WNW 22:27:19 67° WNW visible
23 Sep 4.7 21:01:20 10° NNE 21:06:45 30° ENE 21:07:19 29° E visible
23 Sep 5.1 22:46:22 10° NNW 22:51:56 39° W 22:51:56 39° W visible
24 Sep 4.0 21:25:15 10° N 21:31:23 53° E 21:31:59 51° E visible
24 Sep 6.0 23:11:39 10° NW 23:16:10 21° W 23:16:37 21° W visible
25 Sep 5.6 20:06:52 10° NE 20:09:42 13° ENE 20:12:06 11° E visible
25 Sep 3.9 21:49:33 10° N 21:55:50 86° W 21:56:43 68° S visible
25 Sep 6.6 23:38:43 10° WNW 23:40:06 11° WNW 23:41:21 10° W visible
26 Sep 5.0 20:29:38 10° NNE 20:34:36 24° ENE 20:36:54 20° ESE visible
26 Sep 4.8 22:14:11 10° NNW 22:20:09 48° W 22:21:32 41° SW visible
